{"data":{"norad_id":62950,"intl_designator":"2025-029C","name":"STARLINK-32850","alt_names":[],"object_type":"PAYLOAD","status":"ACTIVE","operator":null,"country":"US","launch_date":"2025-02-11","launch_site_code":"AFWTR","launch_vehicle":null,"mission":null,"orbit_class":"UNKNOWN","rcs_meters":null,"size_class":null,"mass_kg":null,"dimensions":null,"purposes":["comms"],"wikipedia_slug":null,"has_3d_model":false,"image_url":null,"decayed_at":null,"tle_current":{"epoch":"2026-05-24T17:38:07.738656Z","epoch_age_seconds":97973,"freshness":"FRESH","line1":"1 62950U 25029C   26144.73481179  .00011525  00000+0  38236-3 0  9995","line2":"2 62950  53.1589 239.0098 0000908  84.2545 275.8560 15.31717213 72970","mean_motion":15.31717213,"eccentricity":9.08e-5,"inclination_deg":53.1589,"raan_deg":239.0098,"arg_perigee_deg":84.2545,"mean_anomaly_deg":275.856,"bstar":0.00038236,"rev_number":7297,"period_min":94.012131467769,"perigee_km":470.06681127669,"apogee_km":471.31055802102,"semimajor_km":6848.8256846489,"source":"CELESTRAK","updated_at":"2026-05-25T13:38:19.824347Z"}}}